{"data":{"norad_id":64780,"intl_designator":"2025-147AB","name":"STARLINK-34491","alt_names":[],"object_type":"PAYLOAD","status":"ACTIVE","operator":null,"country":"US","launch_date":"2025-07-08","launch_site_code":"AFETR","launch_vehicle":null,"mission":null,"orbit_class":"UNKNOWN","rcs_meters":null,"size_class":null,"mass_kg":null,"dimensions":null,"purposes":["comms"],"wikipedia_slug":null,"has_3d_model":false,"image_url":null,"decayed_at":null,"tle_current":{"epoch":"2026-09-20T21:50:20.738400Z","epoch_age_seconds":92549,"freshness":"FRESH","line1":"1 64780U 25147AB  26263.90996225  .00017465  00000+0  52696-3 0  9998","line2":"2 64780  53.1585  51.5134 0001355  97.8263 262.2894 15.34391027 68701","mean_motion":15.34391027,"eccentricity":0.0001355,"inclination_deg":53.1585,"raan_deg":51.5134,"arg_perigee_deg":97.8263,"mean_anomaly_deg":262.2894,"bstar":0.00052696,"rev_number":6870,"period_min":93.848306895762,"perigee_km":461.80297251774,"apogee_km":463.65684745035,"semimajor_km":6840.866909984,"source":"CELESTRAK","updated_at":"2026-09-21T09:00:35.441424Z"}}}